JAL377 RJTT-RJFR

Flight info

Callsign JAL377
Flight time 1h 16m
Altitude 34000
Route NINOX4 NINOX Y28 MARCO Y285 ASARI DCT
Aircraft B738/M-V/N

Departure

Time 2026-05-07 13:10
Airport Tokyo Haneda International Airport (RJTT)

Arrival

Time 2026-05-07 14:27
Airport Kitakyushu Airport (RJFR)
Time Latitude Longitude Altitude Speed Heading
2026-05-07 12:34 35.54726 139.78412 29 ft 0 kts 60°
2026-05-07 12:58 35.54721 139.78401 29 ft 3 kts 60°
2026-05-07 12:58 35.54711 139.78379 29 ft 3 kts 60°
2026-05-07 12:58 35.54701 139.78358 29 ft 3 kts 60°
2026-05-07 12:58 35.54691 139.78336 29 ft 3 kts 60°
2026-05-07 12:59 35.54680 139.78315 29 ft 3 kts 60°
2026-05-07 12:59 35.54671 139.78295 29 ft 2 kts 60°
2026-05-07 12:59 35.54661 139.78277 29 ft 3 kts 42°
2026-05-07 12:59 35.54645 139.78265 29 ft 3 kts 11°
2026-05-07 13:00 35.54626 139.78264 29 ft 3 kts 345°
2026-05-07 13:00 35.54607 139.78273 29 ft 3 kts 331°
2026-05-07 13:00 35.54590 139.78286 29 ft 3 kts 326°
2026-05-07 13:00 35.54574 139.78299 29 ft 2 kts 328°
2026-05-07 13:01 35.54568 139.78303 29 ft 0 kts 330°
2026-05-07 13:04 35.54573 139.78300 29 ft 2 kts 330°
2026-05-07 13:04 35.54593 139.78269 29 ft 8 kts 288°
2026-05-07 13:05 35.54579 139.78193 28 ft 10 kts 262°
2026-05-07 13:05 35.54624 139.78137 28 ft 10 kts 329°
2026-05-07 13:05 35.54695 139.78086 28 ft 15 kts 330°
2026-05-07 13:05 35.54790 139.78020 28 ft 17 kts 330°
2026-05-07 13:06 35.54893 139.77947 28 ft 18 kts 327°
2026-05-07 13:06 35.55003 139.77868 29 ft 19 kts 332°
2026-05-07 13:06 35.55126 139.77784 28 ft 21 kts 327°
2026-05-07 13:06 35.55258 139.77687 28 ft 23 kts 330°
2026-05-07 13:07 35.55397 139.77589 28 ft 23 kts 330°
2026-05-07 13:07 35.55534 139.77493 28 ft 22 kts 330°
2026-05-07 13:07 35.55654 139.77407 29 ft 18 kts 329°
2026-05-07 13:07 35.55734 139.77349 29 ft 8 kts 327°
2026-05-07 13:08 35.55752 139.77286 29 ft 8 kts 258°
2026-05-07 13:08 35.55730 139.77244 28 ft 5 kts 221°
2026-05-07 13:08 35.55727 139.77241 28 ft 0 kts 218°
2026-05-07 13:09 35.55720 139.77234 28 ft 6 kts 218°
2026-05-07 13:09 35.55661 139.77183 25 ft 11 kts 208°
2026-05-07 13:09 35.55606 139.77186 25 ft 8 kts 150°
2026-05-07 13:09 35.55488 139.77270 27 ft 48 kts 150°
2026-05-07 13:10 35.54984 139.77627 23 ft 117 kts 150°
2026-05-07 13:10 35.54112 139.78254 61 ft 169 kts 149°
2026-05-07 13:10 35.53085 139.78990 812 ft 171 kts 154°
2026-05-07 13:10 35.52022 139.79738 1558 ft 178 kts 156°
2026-05-07 13:11 35.50933 139.80498 2386 ft 182 kts 158°
2026-05-07 13:11 35.49789 139.81165 3170 ft 182 kts 168°
2026-05-07 13:11 35.48540 139.81280 3683 ft 190 kts 200°
2026-05-07 13:11 35.47424 139.80392 4074 ft 201 kts 233°
2026-05-07 13:12 35.46842 139.78771 4403 ft 223 kts 260°
2026-05-07 13:12 35.47020 139.76753 4701 ft 255 kts 287°
2026-05-07 13:12 35.47776 139.74779 5581 ft 258 kts 293°
2026-05-07 13:12 35.48587 139.72758 6201 ft 268 kts 292°
2026-05-07 13:13 35.49396 139.70702 6766 ft 267 kts 292°
2026-05-07 13:13 35.50198 139.68650 7338 ft 268 kts 292°
2026-05-07 13:13 35.51008 139.66572 7930 ft 271 kts 292°
2026-05-07 13:13 35.51826 139.64483 8529 ft 272 kts 292°
2026-05-07 13:14 35.52651 139.62384 9139 ft 274 kts 292°
2026-05-07 13:14 35.53477 139.60257 9753 ft 277 kts 287°
2026-05-07 13:14 35.53709 139.57999 10324 ft 272 kts 262°
2026-05-07 13:14 35.53462 139.55662 10878 ft 283 kts 260°
2026-05-07 13:15 35.53177 139.53209 11307 ft 298 kts 260°
2026-05-07 13:15 35.52890 139.50611 11621 ft 316 kts 261°
2026-05-07 13:15 35.52607 139.47865 11934 ft 332 kts 261°
2026-05-07 13:15 35.52330 139.44990 12243 ft 346 kts 262°
2026-05-07 13:16 35.52057 139.42027 12545 ft 354 kts 262°
2026-05-07 13:16 35.51792 139.39058 12833 ft 352 kts 262°
2026-05-07 13:16 35.51530 139.36080 13283 ft 351 kts 262°
2026-05-07 13:16 35.51267 139.33084 13894 ft 354 kts 262°
2026-05-07 13:17 35.51001 139.30063 14448 ft 357 kts 262°
2026-05-07 13:17 35.50734 139.27023 14997 ft 359 kts 262°
2026-05-07 13:17 35.50464 139.23965 15576 ft 362 kts 262°
2026-05-07 13:17 35.50190 139.20881 16145 ft 364 kts 262°
2026-05-07 13:18 35.49914 139.17783 16726 ft 366 kts 262°
2026-05-07 13:18 35.49660 139.14669 17337 ft 367 kts 264°
2026-05-07 13:18 35.49494 139.11587 17939 ft 369 kts 265°
2026-05-07 13:18 35.49358 139.08418 18329 ft 376 kts 265°
2026-05-07 13:19 35.49222 139.05160 18556 ft 387 kts 266°
2026-05-07 13:19 35.49079 139.01845 18940 ft 391 kts 265°
2026-05-07 13:19 35.48928 138.98497 19414 ft 393 kts 265°
2026-05-07 13:19 35.48770 138.95148 19900 ft 395 kts 265°
2026-05-07 13:20 35.48604 138.91773 20378 ft 397 kts 265°
2026-05-07 13:20 35.48437 138.88375 20772 ft 401 kts 265°
2026-05-07 13:20 35.48269 138.84955 21256 ft 402 kts 265°
2026-05-07 13:20 35.48100 138.81564 21736 ft 404 kts 265°
2026-05-07 13:21 35.47928 138.78117 22155 ft 407 kts 265°
2026-05-07 13:21 35.47752 138.74637 22547 ft 410 kts 265°
2026-05-07 13:21 35.47575 138.71136 22967 ft 412 kts 265°
2026-05-07 13:21 35.47396 138.67622 23374 ft 414 kts 265°
2026-05-07 13:22 35.47214 138.64085 23727 ft 417 kts 265°
2026-05-07 13:22 35.47030 138.60531 24067 ft 418 kts 264°
2026-05-07 13:22 35.46845 138.56966 24420 ft 420 kts 264°
2026-05-07 13:22 35.46659 138.53388 24751 ft 421 kts 264°
2026-05-07 13:23 35.46470 138.49797 25066 ft 423 kts 264°
2026-05-07 13:23 35.46282 138.46228 25396 ft 425 kts 264°
2026-05-07 13:23 35.46091 138.42606 25715 ft 427 kts 264°
2026-05-07 13:23 35.45897 138.38963 26001 ft 429 kts 264°
2026-05-07 13:24 35.45702 138.35311 26322 ft 430 kts 264°
2026-05-07 13:24 35.45505 138.31648 26575 ft 433 kts 264°
2026-05-07 13:24 35.45308 138.27963 26884 ft 433 kts 264°
2026-05-07 13:24 35.45104 138.24273 27171 ft 434 kts 264°
2026-05-07 13:25 35.44901 138.20571 27470 ft 436 kts 264°
2026-05-07 13:25 35.44696 138.16851 27692 ft 438 kts 264°
2026-05-07 13:25 35.44487 138.13171 28004 ft 439 kts 264°
2026-05-07 13:25 35.44269 138.09437 28292 ft 440 kts 264°
2026-05-07 13:26 35.44047 138.05695 28644 ft 439 kts 263°
2026-05-07 13:26 35.43826 138.01974 29076 ft 437 kts 263°
2026-05-07 13:26 35.43605 137.98275 29514 ft 435 kts 263°
2026-05-07 13:26 35.43385 137.94584 29922 ft 433 kts 263°
2026-05-07 13:27 35.43164 137.90901 30278 ft 432 kts 263°
2026-05-07 13:27 35.42942 137.87228 30629 ft 431 kts 263°
2026-05-07 13:27 35.42722 137.83573 30989 ft 430 kts 263°
2026-05-07 13:27 35.42500 137.79922 31335 ft 428 kts 263°
2026-05-07 13:28 35.42270 137.76289 31667 ft 427 kts 263°
2026-05-07 13:28 35.42011 137.72670 31988 ft 426 kts 262°
2026-05-07 13:28 35.41742 137.69059 32314 ft 425 kts 262°
2026-05-07 13:28 35.41478 137.65512 32631 ft 423 kts 262°
2026-05-07 13:29 35.41212 137.61923 32943 ft 423 kts 262°
2026-05-07 13:29 35.40948 137.58335 33260 ft 422 kts 262°
2026-05-07 13:29 35.40530 137.54787 33583 ft 419 kts 255°
2026-05-07 13:29 35.39797 137.51337 33883 ft 418 kts 253°
2026-05-07 13:30 35.38251 137.44442 33971 ft 420 kts 253°
2026-05-07 13:30 35.36721 137.37555 33965 ft 417 kts 253°
2026-05-07 13:31 35.35233 137.30769 33964 ft 414 kts 253°
2026-05-07 13:31 35.33742 137.23968 33959 ft 413 kts 253°
2026-05-07 13:32 35.32250 137.17183 33956 ft 412 kts 253°
2026-05-07 13:32 35.30755 137.10406 33950 ft 413 kts 253°
2026-05-07 13:33 35.29233 137.03608 33947 ft 415 kts 253°
2026-05-07 13:33 35.27701 136.96821 33946 ft 419 kts 253°
2026-05-07 13:34 35.25367 136.86459 33933 ft 423 kts 253°
2026-05-07 13:35 35.23813 136.79510 33932 ft 424 kts 253°
2026-05-07 13:35 35.22328 136.72884 33931 ft 423 kts 253°
2026-05-07 13:36 35.20769 136.65952 33929 ft 422 kts 253°
2026-05-07 13:36 35.19214 136.59062 33914 ft 419 kts 253°
2026-05-07 13:37 35.17675 136.52265 33926 ft 417 kts 253°
2026-05-07 13:37 35.16130 136.45455 33911 ft 415 kts 253°
2026-05-07 13:38 35.14585 136.38669 33941 ft 414 kts 253°
2026-05-07 13:38 35.13043 136.31908 33934 ft 413 kts 253°
2026-05-07 13:39 35.11506 136.25195 33947 ft 415 kts 253°
2026-05-07 13:39 35.09942 136.18373 33938 ft 418 kts 253°
2026-05-07 13:40 35.08378 136.11562 33941 ft 416 kts 253°
2026-05-07 13:40 35.06816 136.04772 33941 ft 415 kts 253°
2026-05-07 13:41 35.05254 135.97998 33926 ft 414 kts 253°
2026-05-07 13:41 35.03697 135.91242 33930 ft 413 kts 253°
2026-05-07 13:42 35.02147 135.84533 33955 ft 414 kts 253°
2026-05-07 13:42 35.00720 135.77665 33943 ft 420 kts 256°
2026-05-07 13:43 34.99474 135.70706 33929 ft 420 kts 257°
2026-05-07 13:43 34.98715 135.66469 33923 ft 418 kts 256°
2026-05-07 13:44 34.97454 135.59573 33918 ft 416 kts 256°
2026-05-07 13:44 34.96192 135.52767 33934 ft 413 kts 256°
2026-05-07 13:45 34.94921 135.45944 33936 ft 413 kts 256°
2026-05-07 13:45 34.93643 135.39101 33932 ft 417 kts 256°
2026-05-07 13:46 34.92331 135.32197 33934 ft 419 kts 256°
2026-05-07 13:46 34.90968 135.25272 33933 ft 421 kts 256°
2026-05-07 13:47 34.89608 135.18380 33930 ft 421 kts 256°
2026-05-07 13:47 34.88241 135.11443 33928 ft 420 kts 256°
2026-05-07 13:48 34.86877 135.04535 33921 ft 419 kts 256°
2026-05-07 13:48 34.85520 134.97654 33925 ft 417 kts 256°
2026-05-07 13:49 34.84227 134.90784 33923 ft 415 kts 256°
2026-05-07 13:49 34.82958 134.83997 33928 ft 413 kts 256°
2026-05-07 13:50 34.81673 134.77190 33920 ft 412 kts 256°
2026-05-07 13:50 34.80386 134.70406 33927 ft 411 kts 256°
2026-05-07 13:51 34.79103 134.63671 33926 ft 411 kts 256°
2026-05-07 13:51 34.77800 134.56905 33926 ft 411 kts 256°
2026-05-07 13:52 34.76492 134.50128 33934 ft 414 kts 256°
2026-05-07 13:52 34.75170 134.43290 33935 ft 417 kts 256°
2026-05-07 13:53 34.73853 134.36398 33926 ft 420 kts 256°
2026-05-07 13:53 34.72531 134.29477 33920 ft 420 kts 256°
2026-05-07 13:54 34.71204 134.22561 33917 ft 419 kts 256°
2026-05-07 13:54 34.69879 134.15729 33921 ft 418 kts 256°
2026-05-07 13:55 34.68547 134.08902 33914 ft 413 kts 256°
2026-05-07 13:55 34.67217 134.02128 33918 ft 412 kts 255°
2026-05-07 13:56 34.65335 133.95558 33927 ft 413 kts 250°
2026-05-07 13:56 34.63292 133.89014 33914 ft 415 kts 250°
2026-05-07 13:57 34.61276 133.82504 33920 ft 415 kts 250°
2026-05-07 13:57 34.59258 133.75950 33916 ft 415 kts 250°
2026-05-07 13:58 34.57233 133.69376 33918 ft 416 kts 250°
2026-05-07 13:58 34.55204 133.62808 33920 ft 416 kts 250°
2026-05-07 13:59 34.53109 133.56267 33918 ft 416 kts 249°
2026-05-07 13:59 34.50960 133.49793 33919 ft 417 kts 249°
2026-05-07 14:00 34.48802 133.43261 33918 ft 417 kts 249°
2026-05-07 14:00 34.46657 133.36733 33914 ft 416 kts 250°
2026-05-07 14:01 34.44599 133.30192 33930 ft 416 kts 250°
2026-05-07 14:01 34.42558 133.23676 33932 ft 417 kts 250°
2026-05-07 14:01 34.41519 133.20389 33796 ft 419 kts 250°
2026-05-07 14:02 34.40480 133.17108 33590 ft 417 kts 250°
2026-05-07 14:02 34.39438 133.13831 33243 ft 418 kts 250°
2026-05-07 14:02 34.38395 133.10564 32775 ft 412 kts 250°
2026-05-07 14:02 34.37369 133.07355 32315 ft 405 kts 250°
2026-05-07 14:03 34.36363 133.04210 31878 ft 396 kts 250°
2026-05-07 14:03 34.35380 133.01139 31383 ft 387 kts 249°
2026-05-07 14:03 34.34416 132.98125 30917 ft 380 kts 249°
2026-05-07 14:03 34.33474 132.95181 30459 ft 373 kts 249°
2026-05-07 14:04 34.32556 132.92317 29987 ft 367 kts 249°
2026-05-07 14:04 34.31635 132.89447 29470 ft 366 kts 249°
2026-05-07 14:04 34.30717 132.86577 28922 ft 365 kts 249°
2026-05-07 14:04 34.29814 132.83721 28416 ft 363 kts 249°
2026-05-07 14:05 34.28915 132.80871 27911 ft 362 kts 249°
2026-05-07 14:05 34.28020 132.78036 27404 ft 360 kts 249°
2026-05-07 14:05 34.27127 132.75212 26909 ft 359 kts 249°
2026-05-07 14:05 34.26237 132.72401 26418 ft 357 kts 249°
2026-05-07 14:06 34.25348 132.69597 25943 ft 356 kts 249°
2026-05-07 14:06 34.24466 132.66814 25467 ft 352 kts 249°
2026-05-07 14:06 34.23597 132.64077 24992 ft 347 kts 249°
2026-05-07 14:06 34.22736 132.61370 24524 ft 341 kts 249°
2026-05-07 14:07 34.21904 132.58754 24069 ft 336 kts 249°
2026-05-07 14:07 34.21072 132.56142 23639 ft 330 kts 249°
2026-05-07 14:07 34.20254 132.53569 23138 ft 325 kts 249°
2026-05-07 14:07 34.19449 132.51026 22690 ft 323 kts 249°
2026-05-07 14:08 34.18649 132.48497 22267 ft 322 kts 249°
2026-05-07 14:08 34.17851 132.45974 21855 ft 321 kts 249°
2026-05-07 14:08 34.17055 132.43460 21439 ft 321 kts 249°
2026-05-07 14:08 34.16257 132.40941 21013 ft 321 kts 248°
2026-05-07 14:09 34.15456 132.38416 20611 ft 325 kts 249°
2026-05-07 14:09 34.14638 132.35841 20180 ft 332 kts 249°
2026-05-07 14:09 34.13823 132.33278 19752 ft 331 kts 248°
2026-05-07 14:09 34.13001 132.30694 19316 ft 329 kts 248°
2026-05-07 14:10 34.12183 132.28123 18881 ft 327 kts 248°
2026-05-07 14:10 34.11639 132.26416 18600 ft 326 kts 248°
2026-05-07 14:10 34.10834 132.23889 18163 ft 325 kts 248°
2026-05-07 14:10 34.10028 132.21362 17687 ft 323 kts 248°
2026-05-07 14:11 34.09223 132.18842 17243 ft 320 kts 248°
2026-05-07 14:11 34.08425 132.16345 16826 ft 317 kts 248°
2026-05-07 14:11 34.07713 132.13873 16407 ft 317 kts 253°
2026-05-07 14:11 34.07191 132.11303 15989 ft 315 kts 255°
2026-05-07 14:12 34.06701 132.08727 15576 ft 314 kts 256°
2026-05-07 14:12 34.06219 132.06168 15167 ft 312 kts 256°
2026-05-07 14:12 34.05739 132.03634 14765 ft 310 kts 256°
2026-05-07 14:12 34.05255 132.01106 14366 ft 309 kts 256°
2026-05-07 14:13 34.04769 131.98584 13945 ft 308 kts 256°
2026-05-07 14:13 34.04283 131.96073 13549 ft 306 kts 256°
2026-05-07 14:13 34.03805 131.93616 13129 ft 304 kts 256°
2026-05-07 14:13 34.03325 131.91151 12738 ft 302 kts 256°
2026-05-07 14:14 34.02845 131.88693 12339 ft 300 kts 256°
2026-05-07 14:14 34.02368 131.86252 11952 ft 298 kts 256°
2026-05-07 14:14 34.01893 131.83824 11552 ft 297 kts 256°
2026-05-07 14:14 34.01419 131.81403 11174 ft 296 kts 256°
2026-05-07 14:15 34.00946 131.78991 10780 ft 296 kts 256°
2026-05-07 14:15 34.00475 131.76597 10571 ft 289 kts 256°
2026-05-07 14:15 34.00022 131.74304 10411 ft 281 kts 256°
2026-05-07 14:15 33.99573 131.72056 10277 ft 272 kts 256°
2026-05-07 14:16 33.99136 131.69875 10155 ft 263 kts 256°
2026-05-07 14:16 33.98713 131.67765 10041 ft 255 kts 256°
2026-05-07 14:16 33.98301 131.65710 9802 ft 252 kts 256°
2026-05-07 14:16 33.97977 131.63631 9406 ft 255 kts 260°
2026-05-07 14:17 33.97716 131.61514 9055 ft 255 kts 261°
2026-05-07 14:17 33.97467 131.59416 8686 ft 252 kts 261°
2026-05-07 14:17 33.97212 131.57297 8067 ft 259 kts 260°
2026-05-07 14:17 33.96984 131.55430 7760 ft 256 kts 260°
2026-05-07 14:18 33.96723 131.53316 7432 ft 255 kts 260°
2026-05-07 14:18 33.96459 131.51195 7087 ft 256 kts 260°
2026-05-07 14:18 33.96193 131.49084 6811 ft 255 kts 260°
2026-05-07 14:18 33.95927 131.46978 6524 ft 254 kts 260°
2026-05-07 14:19 33.95660 131.44879 6233 ft 253 kts 260°
2026-05-07 14:19 33.95394 131.42789 5919 ft 252 kts 259°
2026-05-07 14:19 33.95131 131.40734 5668 ft 250 kts 259°
2026-05-07 14:19 33.94867 131.38672 5378 ft 249 kts 259°
2026-05-07 14:20 33.94603 131.36617 5103 ft 248 kts 259°
2026-05-07 14:20 33.94341 131.34576 4828 ft 246 kts 259°
2026-05-07 14:20 33.94079 131.32548 4546 ft 242 kts 259°
2026-05-07 14:20 33.93823 131.30564 4253 ft 238 kts 259°
2026-05-07 14:21 33.93573 131.28623 3986 ft 233 kts 259°
2026-05-07 14:21 33.93325 131.26711 3731 ft 228 kts 259°
2026-05-07 14:21 33.93085 131.24857 3597 ft 219 kts 259°
2026-05-07 14:21 33.92856 131.23082 3477 ft 209 kts 259°
2026-05-07 14:22 33.92640 131.21417 3377 ft 199 kts 259°
2026-05-07 14:22 33.92432 131.19812 3291 ft 189 kts 259°
2026-05-07 14:22 33.92231 131.18267 3260 ft 187 kts 259°
2026-05-07 14:22 33.92027 131.16709 3134 ft 191 kts 259°
2026-05-07 14:23 33.91818 131.15115 2916 ft 194 kts 259°
2026-05-07 14:23 33.91609 131.13521 2707 ft 190 kts 259°
2026-05-07 14:23 33.91415 131.11975 2502 ft 184 kts 263°
2026-05-07 14:23 33.91591 131.10478 2284 ft 180 kts 283°
2026-05-07 14:24 33.91897 131.09035 2044 ft 175 kts 282°
2026-05-07 14:24 33.92166 131.07660 1825 ft 162 kts 279°
2026-05-07 14:24 33.92226 131.06338 1623 ft 154 kts 262°
2026-05-07 14:24 33.91945 131.05136 1372 ft 151 kts 245°
2026-05-07 14:25 33.91381 131.04095 1214 ft 149 kts 229°
2026-05-07 14:25 33.90588 131.03292 1011 ft 150 kts 212°
2026-05-07 14:25 33.89624 131.02805 826 ft 152 kts 194°
2026-05-07 14:25 33.88567 131.02689 633 ft 153 kts 178°
2026-05-07 14:26 33.87544 131.02878 435 ft 152 kts 170°
2026-05-07 14:26 33.86498 131.03117 242 ft 153 kts 171°
2026-05-07 14:26 33.85464 131.03324 47 ft 150 kts 171°
2026-05-07 14:26 33.84531 131.03512 30 ft 113 kts 170°
2026-05-07 14:27 33.83969 131.03626 27 ft 51 kts 170°
2026-05-07 14:27 33.83727 131.03677 29 ft 32 kts 171°
2026-05-07 14:27 33.83546 131.03713 30 ft 12 kts 169°
2026-05-07 14:27 33.83487 131.03708 32 ft 8 kts 210°
2026-05-07 14:28 33.83458 131.03650 29 ft 9 kts 259°
2026-05-07 14:28 33.83449 131.03579 30 ft 8 kts 274°
2026-05-07 14:28 33.83484 131.03528 29 ft 8 kts 335°
2026-05-07 14:28 33.83538 131.03513 29 ft 8 kts 349°
2026-05-07 14:29 33.83590 131.03501 29 ft 8 kts 350°
2026-05-07 14:29 33.83642 131.03491 29 ft 8 kts 351°
2026-05-07 14:29 33.83712 131.03478 29 ft 13 kts 351°
2026-05-07 14:29 33.83814 131.03459 29 ft 17 kts 349°
2026-05-07 14:30 33.83933 131.03433 29 ft 17 kts 350°
2026-05-07 14:30 33.83986 131.03414 29 ft 6 kts 312°
2026-05-07 14:30 33.83987 131.03364 29 ft 6 kts 262°
2026-05-07 14:30 33.83980 131.03315 29 ft 6 kts 260°
2026-05-07 14:31 33.83973 131.03270 29 ft 3 kts 260°
2026-05-07 14:31 33.83972 131.03265 29 ft 0 kts 260°